Time,TemperatureF,DewpointF,PressureIn,WindDirection,WindDirectionDegrees,WindSpeedMPH,WindSpeedGustMPH,Humidity,HourlyPrecipIn,Conditions,Clouds,dailyrainin,SoftwareType,DateUTC
2013-04-07 00:00:00,42.9,39.3,29.78,ESE,112,0.0,0.0,87,0.00,,OVC036,0.00,VWS V14.01,2013-04-07 07:00:00,
2013-04-07 00:05:00,42.9,39.3,29.78,ESE,112,0.0,0.0,87,0.00,,OVC036,0.00,VWS V14.01,2013-04-07 07:05:00,
2013-04-07 00:10:00,42.8,39.2,29.77,ESE,112,0.0,0.0,87,0.00,,OVC036,0.00,VWS V14.01,2013-04-07 07:10:00,
2013-04-07 00:15:00,42.6,39.0,29.77,ESE,112,0.0,0.0,87,0.00,,OVC036,0.00,VWS V14.01,2013-04-07 07:15:00,
2013-04-07 00:21:00,42.6,39.0,29.77,ESE,112,0.0,0.0,87,0.00,,OVC036,0.00,VWS V14.01,2013-04-07 07:21:00,
2013-04-07 00:26:00,42.6,39.0,29.77,ESE,112,0.0,0.0,87,0.00,,OVC036,0.00,VWS V14.01,2013-04-07 07:26:00,
2013-04-07 00:32:00,42.6,39.0,29.76,ESE,112,0.0,0.0,87,0.00,,OVC036,0.00,VWS V14.01,2013-04-07 07:32:00,
2013-04-07 00:37:00,42.6,39.0,29.75,ESE,112,0.0,0.0,87,0.00,,OVC036,0.00,VWS V14.01,2013-04-07 07:37:00,
2013-04-07 00:42:00,42.6,39.0,29.75,ESE,112,0.0,0.0,87,0.00,,OVC036,0.00,VWS V14.01,2013-04-07 07:42:00,
2013-04-07 00:47:00,42.6,39.0,29.74,ESE,112,0.0,0.0,87,0.00,,OVC036,0.00,VWS V14.01,2013-04-07 07:47:00,
2013-04-07 00:53:00,42.4,38.8,29.73,ESE,112,0.0,0.0,87,0.00,,OVC036,0.00,VWS V14.01,2013-04-07 07:53:00,
2013-04-07 00:58:00,42.4,38.8,29.72,ESE,112,0.0,0.0,87,0.00,,OVC036,0.00,VWS V14.01,2013-04-07 07:58:00,
2013-04-07 01:03:00,42.4,39.1,29.72,ESE,112,0.0,0.0,88,0.00,,OVC036,0.00,VWS V14.01,2013-04-07 08:03:00,
2013-04-07 01:09:00,42.4,39.1,29.72,ESE,112,0.0,0.0,88,0.00,,OVC036,0.00,VWS V14.01,2013-04-07 08:09:00,
2013-04-07 01:14:00,42.4,39.1,29.72,ESE,112,0.0,0.0,88,0.00,,OVC036,0.00,VWS V14.01,2013-04-07 08:14:00,
2013-04-07 01:19:00,42.4,39.1,29.71,ESE,112,0.0,0.0,88,0.00,,OVC036,0.00,VWS V14.01,2013-04-07 08:19:00,
2013-04-07 01:24:00,42.4,39.1,29.71,ESE,112,0.0,0.0,88,0.00,,OVC036,0.00,VWS V14.01,2013-04-07 08:24:00,
2013-04-07 01:30:00,42.2,38.9,29.70,ESE,112,0.0,0.0,88,0.00,,OVC036,0.00,VWS V14.01,2013-04-07 08:30:00,
2013-04-07 01:35:00,42.2,38.9,29.71,ESE,112,0.0,0.0,88,0.00,,OVC036,0.00,VWS V14.01,2013-04-07 08:35:00,
2013-04-07 01:40:00,42.2,38.9,29.70,ESE,112,0.0,0.0,88,0.00,,OVC036,0.00,VWS V14.01,2013-04-07 08:40:00,
2013-04-07 01:45:00,42.0,38.7,29.70,ESE,112,0.0,0.0,88,0.00,,OVC036,0.00,VWS V14.01,2013-04-07 08:45:00,
2013-04-07 01:50:00,42.2,38.9,29.69,ESE,112,0.0,0.0,88,0.00,,OVC036,0.00,VWS V14.01,2013-04-07 08:50:00,
2013-04-07 01:55:00,42.2,38.9,29.69,ESE,112,0.0,0.0,88,0.00,,OVC036,0.00,VWS V14.01,2013-04-07 08:55:00,
2013-04-07 02:00:00,42.2,38.9,29.69,ESE,112,0.0,0.0,88,0.00,,BKN024,0.00,VWS V14.01,2013-04-07 09:00:00,
2013-04-07 02:05:00,42.2,38.9,29.69,ESE,112,0.0,0.0,88,0.00,,BKN024,0.00,VWS V14.01,2013-04-07 09:05:00,
2013-04-07 02:10:00,42.2,38.9,29.68,ESE,112,0.0,0.0,88,0.00,,BKN024,0.00,VWS V14.01,2013-04-07 09:10:00,
2013-04-07 02:15:00,42.2,38.9,29.68,ESE,112,0.0,0.0,88,0.00,,BKN024,0.00,VWS V14.01,2013-04-07 09:15:00,
2013-04-07 02:22:00,42.2,39.2,29.67,ESE,112,0.0,0.0,89,0.00,,BKN024,0.00,VWS V14.01,2013-04-07 09:22:00,
2013-04-07 02:27:00,42.2,39.2,29.67,ESE,112,0.0,0.0,89,0.00,,BKN024,0.00,VWS V14.01,2013-04-07 09:27:00,
2013-04-07 02:32:00,42.0,39.0,29.66,ESE,112,0.0,0.0,89,0.00,,BKN024,0.00,VWS V14.01,2013-04-07 09:32:00,
2013-04-07 02:37:00,42.0,39.0,29.65,ESE,112,0.0,0.0,89,0.00,,BKN024,0.00,VWS V14.01,2013-04-07 09:37:00,
2013-04-07 02:43:00,42.0,39.0,29.65,ENE,68,0.0,0.0,89,0.00,,BKN024,0.00,VWS V14.01,2013-04-07 09:43:00,
2013-04-07 02:48:00,42.0,39.0,29.64,NE,45,0.0,0.0,89,0.00,,BKN024,0.00,VWS V14.01,2013-04-07 09:48:00,
2013-04-07 02:53:00,42.0,39.0,29.64,NE,45,0.0,0.0,89,0.00,,BKN024,0.00,VWS V14.01,2013-04-07 09:53:00,
2013-04-07 02:58:00,42.0,39.0,29.63,South,180,0.0,0.0,89,0.00,,BKN024,0.00,VWS V14.01,2013-04-07 09:58:00,
2013-04-07 03:04:00,41.9,38.9,29.63,South,180,0.0,0.0,89,0.00,,BKN024,0.00,VWS V14.01,2013-04-07 10:04:00,
2013-04-07 03:10:00,41.9,38.9,29.63,South,180,0.0,0.0,89,0.00,,BKN024,0.00,VWS V14.01,2013-04-07 10:10:00,
2013-04-07 03:15:00,41.7,38.7,29.62,WNW,292,0.0,0.0,89,0.00,,BKN024,0.00,VWS V14.01,2013-04-07 10:15:00,
2013-04-07 03:20:00,41.3,38.3,29.62,WNW,292,0.0,0.0,89,0.00,,BKN024,0.00,VWS V14.01,2013-04-07 10:20:00,
2013-04-07 03:25:00,41.1,38.1,29.62,WNW,292,0.0,0.0,89,0.00,,BKN024,0.00,VWS V14.01,2013-04-07 10:25:00,
2013-04-07 03:30:00,40.8,37.8,29.61,WNW,292,0.0,0.0,89,0.00,,BKN024,0.00,VWS V14.01,2013-04-07 10:30:00,
2013-04-07 03:35:00,40.8,37.8,29.62,WNW,292,0.0,0.0,89,0.00,,BKN024,0.00,VWS V14.01,2013-04-07 10:35:00,
2013-04-07 03:40:00,40.6,37.6,29.61,WNW,292,0.0,0.0,89,0.00,,BKN024,0.00,VWS V14.01,2013-04-07 10:40:00,
2013-04-07 03:45:00,40.6,37.6,29.61,WNW,292,0.0,0.0,89,0.00,,BKN024,0.00,VWS V14.01,2013-04-07 10:45:00,
2013-04-07 03:51:00,40.6,37.6,29.61,ENE,68,0.0,0.0,89,0.00,,BKN024,0.00,VWS V14.01,2013-04-07 10:51:00,
2013-04-07 03:56:00,40.6,37.6,29.60,ENE,68,0.0,0.0,89,0.00,,BKN024,0.00,VWS V14.01,2013-04-07 10:56:00,
2013-04-07 04:02:00,40.6,37.6,29.59,ENE,68,0.0,0.0,89,0.00,,OVC029,0.00,VWS V14.01,2013-04-07 11:02:00,
2013-04-07 04:07:00,40.4,37.4,29.59,ENE,68,0.0,0.0,89,0.00,,OVC029,0.00,VWS V14.01,2013-04-07 11:07:00,
2013-04-07 04:12:00,40.2,37.2,29.59,ENE,68,0.0,0.0,89,0.00,,OVC029,0.00,VWS V14.01,2013-04-07 11:12:00,
2013-04-07 04:17:00,40.2,37.2,29.58,ENE,68,0.0,0.0,89,0.00,,OVC029,0.00,VWS V14.01,2013-04-07 11:17:00,
2013-04-07 04:22:00,40.2,37.2,29.58,ENE,68,0.0,0.0,89,0.00,,OVC029,0.00,VWS V14.01,2013-04-07 11:22:00,
2013-04-07 04:28:00,40.1,37.1,29.58,ENE,68,0.0,0.0,89,0.00,,OVC029,0.00,VWS V14.01,2013-04-07 11:28:00,
2013-04-07 04:33:00,39.9,36.9,29.58,ENE,68,0.0,0.0,89,0.00,,OVC029,0.00,VWS V14.01,2013-04-07 11:33:00,
2013-04-07 04:38:00,39.9,36.9,29.58,ENE,68,0.0,0.0,89,0.00,,OVC029,0.00,VWS V14.01,2013-04-07 11:38:00,
2013-04-07 04:43:00,39.9,37.2,29.58,ENE,68,0.0,0.0,90,0.00,,OVC029,0.00,VWS V14.01,2013-04-07 11:43:00,
2013-04-07 04:49:00,39.7,37.0,29.58,NE,45,0.0,0.0,90,0.00,,OVC029,0.00,VWS V14.01,2013-04-07 11:49:00,
2013-04-07 04:54:00,39.7,37.0,29.58,NE,45,0.0,0.0,90,0.00,,OVC029,0.00,VWS V14.01,2013-04-07 11:54:00,
2013-04-07 04:59:00,39.3,36.6,29.57,East,90,0.0,0.0,90,0.00,,OVC029,0.00,VWS V14.01,2013-04-07 11:59:00,
2013-04-07 05:05:00,39.2,36.5,29.57,NE,45,0.0,0.0,90,0.00,,OVC029,0.00,VWS V14.01,2013-04-07 12:05:00,
2013-04-07 05:10:00,39.0,36.3,29.57,ENE,68,0.0,0.0,90,0.00,,OVC029,0.00,VWS V14.01,2013-04-07 12:10:00,
2013-04-07 05:16:00,39.0,36.3,29.57,ENE,68,0.0,0.0,90,0.00,,OVC029,0.00,VWS V14.01,2013-04-07 12:16:00,
2013-04-07 05:21:00,38.8,35.8,29.57,ENE,68,0.0,0.0,89,0.00,,OVC029,0.00,VWS V14.01,2013-04-07 12:21:00,
2013-04-07 05:26:00,38.6,35.6,29.57,NE,45,0.0,0.0,89,0.00,,OVC029,0.00,VWS V14.01,2013-04-07 12:26:00,
2013-04-07 05:32:00,38.4,35.5,29.57,NE,45,0.0,0.0,89,0.00,,OVC029,0.00,VWS V14.01,2013-04-07 12:32:00,
2013-04-07 05:37:00,38.1,35.2,29.57,East,90,0.0,0.0,89,0.00,,OVC029,0.00,VWS V14.01,2013-04-07 12:37:00,
2013-04-07 05:42:00,38.1,35.2,29.57,East,90,0.0,0.0,89,0.00,,OVC029,0.00,VWS V14.01,2013-04-07 12:42:00,
2013-04-07 05:47:00,37.9,35.2,29.57,SE,135,0.0,0.0,90,0.00,,OVC029,0.00,VWS V14.01,2013-04-07 12:47:00,
2013-04-07 05:53:00,37.9,35.2,29.57,ENE,68,0.0,0.0,90,0.00,,OVC029,0.00,VWS V14.01,2013-04-07 12:53:00,
2013-04-07 05:58:00,37.9,35.2,29.57,SSW,202,0.0,0.0,90,0.00,,OVC029,0.00,VWS V14.01,2013-04-07 12:58:00,
2013-04-07 06:04:00,37.9,35.2,29.57,ENE,68,0.0,0.0,90,0.00,,OVC026,0.00,VWS V14.01,2013-04-07 13:04:00,
2013-04-07 06:10:00,37.9,35.2,29.57,ENE,68,0.0,0.0,90,0.00,,OVC026,0.00,VWS V14.01,2013-04-07 13:10:00,
2013-04-07 06:15:00,37.9,35.2,29.57,NE,45,0.0,0.0,90,0.00,,OVC026,0.00,VWS V14.01,2013-04-07 13:15:00,
2013-04-07 06:20:00,37.9,35.2,29.57,NE,45,0.0,0.0,90,0.00,,OVC026,0.00,VWS V14.01,2013-04-07 13:20:00,
2013-04-07 06:25:00,37.9,35.2,29.57,NE,45,0.0,0.0,90,0.00,,OVC026,0.00,VWS V14.01,2013-04-07 13:25:00,
2013-04-07 06:30:00,37.9,35.2,29.57,NNW,338,0.0,0.0,90,0.00,,OVC026,0.00,VWS V14.01,2013-04-07 13:30:00,
2013-04-07 06:35:00,37.9,35.2,29.57,NNE,22,0.0,0.0,90,0.00,,OVC026,0.00,VWS V14.01,2013-04-07 13:35:00,
2013-04-07 06:40:00,37.9,35.2,29.57,NNE,22,0.0,0.0,90,0.00,,OVC026,0.00,VWS V14.01,2013-04-07 13:40:00,
2013-04-07 06:45:00,37.9,35.2,29.57,NNE,22,0.0,0.0,90,0.00,,OVC026,0.00,VWS V14.01,2013-04-07 13:45:00,
2013-04-07 06:51:00,38.1,35.4,29.57,ENE,68,0.0,0.0,90,0.00,,OVC026,0.00,VWS V14.01,2013-04-07 13:51:00,
2013-04-07 06:57:00,38.1,35.4,29.58,East,90,0.0,0.0,90,0.00,,OVC026,0.00,VWS V14.01,2013-04-07 13:57:00,
2013-04-07 07:02:00,38.3,35.6,29.57,ESE,112,0.0,0.0,90,0.00,,OVC026,0.00,VWS V14.01,2013-04-07 14:02:00,
2013-04-07 07:07:00,38.4,35.7,29.58,ESE,112,0.0,0.0,90,0.00,,OVC026,0.00,VWS V14.01,2013-04-07 14:07:00,
2013-04-07 07:13:00,38.4,35.7,29.58,ESE,112,0.0,0.0,90,0.00,,OVC026,0.00,VWS V14.01,2013-04-07 14:13:00,
2013-04-07 07:18:00,38.4,35.7,29.58,ESE,112,0.0,0.0,90,0.00,,OVC026,0.00,VWS V14.01,2013-04-07 14:18:00,
2013-04-07 07:23:00,38.4,35.7,29.58,ESE,112,0.0,0.0,90,0.00,,OVC026,0.00,VWS V14.01,2013-04-07 14:23:00,
2013-04-07 07:29:00,38.8,36.1,29.59,ESE,112,0.0,0.0,90,0.00,,OVC026,0.00,VWS V14.01,2013-04-07 14:29:00,
2013-04-07 07:34:00,38.6,35.9,29.59,ESE,112,0.0,0.0,90,0.00,,OVC026,0.00,VWS V14.01,2013-04-07 14:34:00,
2013-04-07 07:39:00,38.8,36.1,29.60,ESE,112,0.0,0.0,90,0.00,,OVC026,0.00,VWS V14.01,2013-04-07 14:39:00,
2013-04-07 07:44:00,38.8,36.1,29.61,ESE,112,0.0,0.0,90,0.00,,OVC026,0.00,VWS V14.01,2013-04-07 14:44:00,
2013-04-07 07:49:00,39.0,36.3,29.61,ESE,112,0.0,0.0,90,0.00,,OVC026,0.00,VWS V14.01,2013-04-07 14:49:00,
2013-04-07 07:54:00,39.0,36.3,29.62,ESE,112,0.0,0.0,90,0.00,,OVC026,0.00,VWS V14.01,2013-04-07 14:54:00,
2013-04-07 08:00:00,39.3,36.6,29.62,ESE,112,0.0,0.0,90,0.00,,OVC026,0.00,VWS V14.01,2013-04-07 15:00:00,
2013-04-07 08:05:00,39.3,36.6,29.62,ESE,112,0.0,0.0,90,0.00,,OVC044,0.00,VWS V14.01,2013-04-07 15:05:00,
2013-04-07 08:10:00,39.5,36.8,29.63,SE,135,0.0,0.0,90,0.00,,OVC044,0.00,VWS V14.01,2013-04-07 15:10:00,
2013-04-07 08:15:00,39.5,36.8,29.62,SE,135,0.0,0.0,90,0.00,,OVC044,0.00,VWS V14.01,2013-04-07 15:15:00,
2013-04-07 08:21:00,39.7,37.0,29.63,SE,135,0.0,0.0,90,0.00,,OVC044,0.00,VWS V14.01,2013-04-07 15:21:00,
2013-04-07 08:26:00,39.9,37.2,29.64,SE,135,0.0,0.0,90,0.00,,OVC044,0.00,VWS V14.01,2013-04-07 15:26:00,
2013-04-07 08:32:00,39.9,37.2,29.64,SE,135,0.0,0.0,90,0.00,,OVC044,0.00,VWS V14.01,2013-04-07 15:32:00,
2013-04-07 08:37:00,39.9,37.2,29.64,SE,135,0.0,0.0,90,0.00,,OVC044,0.00,VWS V14.01,2013-04-07 15:37:00,
2013-04-07 08:42:00,39.9,37.2,29.65,SE,135,0.0,0.0,90,0.00,,OVC044,0.00,VWS V14.01,2013-04-07 15:42:00,
2013-04-07 08:47:00,40.1,37.4,29.65,SE,135,0.0,0.0,90,0.00,,OVC044,0.00,VWS V14.01,2013-04-07 15:47:00,
2013-04-07 08:53:00,40.2,37.5,29.65,SE,135,0.0,0.0,90,0.00,,OVC044,0.00,VWS V14.01,2013-04-07 15:53:00,
2013-04-07 08:58:00,40.2,37.5,29.66,SE,135,0.0,0.0,90,0.00,,OVC044,0.00,VWS V14.01,2013-04-07 15:58:00,
2013-04-07 09:04:00,40.6,37.9,29.66,SE,135,0.0,0.0,90,0.00,,OVC044,0.00,VWS V14.01,2013-04-07 16:04:00,
2013-04-07 09:10:00,40.6,37.9,29.66,SE,135,0.0,0.0,90,0.00,,OVC044,0.00,VWS V14.01,2013-04-07 16:10:00,
2013-04-07 09:15:00,40.6,37.9,29.66,SE,135,0.0,0.0,90,0.00,,OVC044,0.00,VWS V14.01,2013-04-07 16:15:00,
2013-04-07 09:20:00,40.6,37.9,29.66,SE,135,0.0,0.0,90,0.00,,OVC044,0.00,VWS V14.01,2013-04-07 16:20:00,
2013-04-07 09:25:00,40.6,37.9,29.66,SE,135,0.0,0.0,90,0.00,,OVC044,0.00,VWS V14.01,2013-04-07 16:25:00,
2013-04-07 09:30:00,40.6,37.9,29.66,SE,135,0.0,0.0,90,0.00,,OVC044,0.00,VWS V14.01,2013-04-07 16:30:00,
2013-04-07 09:35:00,40.8,38.1,29.67,ESE,112,0.0,0.0,90,0.00,,OVC044,0.00,VWS V14.01,2013-04-07 16:35:00,
2013-04-07 09:40:00,40.8,38.1,29.67,ENE,68,0.0,0.0,90,0.00,,OVC044,0.00,VWS V14.01,2013-04-07 16:40:00,
2013-04-07 09:45:00,40.8,38.1,29.67,ENE,68,0.0,0.0,90,0.00,,OVC044,0.00,VWS V14.01,2013-04-07 16:45:00,
2013-04-07 09:50:00,40.8,38.1,29.67,South,180,0.0,0.0,90,0.00,,OVC044,0.00,VWS V14.01,2013-04-07 16:50:00,
2013-04-07 09:57:00,40.8,38.1,29.67,SE,135,0.0,0.0,90,0.00,,OVC044,0.00,VWS V14.01,2013-04-07 16:57:00,
2013-04-07 10:02:00,40.8,38.1,29.67,West,270,0.0,0.0,90,0.00,,OVC006,0.00,VWS V14.01,2013-04-07 17:02:00,
2013-04-07 10:07:00,40.8,38.1,29.68,SE,135,0.0,0.0,90,0.00,,OVC006,0.00,VWS V14.01,2013-04-07 17:07:00,
2013-04-07 10:12:00,40.8,38.1,29.68,SE,135,0.0,0.0,90,0.00,,OVC006,0.00,VWS V14.01,2013-04-07 17:12:00,
2013-04-07 10:18:00,41.1,38.4,29.68,SE,135,0.0,0.0,90,0.00,,OVC006,0.00,VWS V14.01,2013-04-07 17:18:00,
2013-04-07 10:23:00,41.1,38.7,29.69,ESE,112,0.0,0.0,91,0.00,,OVC006,0.00,VWS V14.01,2013-04-07 17:23:00,
2013-04-07 10:29:00,41.3,38.9,29.69,ESE,112,0.0,0.0,91,0.00,,OVC006,0.00,VWS V14.01,2013-04-07 17:29:00,
2013-04-07 10:34:00,41.5,39.1,29.69,ENE,68,0.0,0.0,91,0.00,,OVC006,0.00,VWS V14.01,2013-04-07 17:34:00,
2013-04-07 10:39:00,41.5,39.1,29.69,North,0,0.0,0.0,91,0.00,,OVC006,0.00,VWS V14.01,2013-04-07 17:39:00,
2013-04-07 10:45:00,41.5,39.1,29.70,SE,135,0.0,0.0,91,0.00,,OVC006,0.00,VWS V14.01,2013-04-07 17:45:00,
2013-04-07 10:50:00,41.7,39.3,29.70,SE,135,0.0,0.0,91,0.00,,OVC006,0.00,VWS V14.01,2013-04-07 17:50:00,
2013-04-07 10:55:00,41.7,39.3,29.71,SSE,158,0.0,0.0,91,0.00,,OVC006,0.00,VWS V14.01,2013-04-07 17:55:00,
2013-04-07 11:00:00,41.9,39.5,29.71,SE,135,0.0,0.0,91,0.00,,OVC006,0.00,VWS V14.01,2013-04-07 18:00:00,
2013-04-07 11:05:00,42.0,39.3,29.71,NNE,22,0.0,0.0,90,0.00,,OVC006,0.00,VWS V14.01,2013-04-07 18:05:00,
2013-04-07 11:11:00,42.4,39.7,29.71,SE,135,0.0,0.0,90,0.00,,OVC006,0.00,VWS V14.01,2013-04-07 18:11:00,
2013-04-07 11:16:00,42.6,39.9,29.71,SSE,158,0.0,0.0,90,0.00,,OVC006,0.00,VWS V14.01,2013-04-07 18:16:00,
2013-04-07 11:21:00,42.8,40.1,29.71,SSE,158,0.0,0.0,90,0.00,,OVC006,0.00,VWS V14.01,2013-04-07 18:21:00,
2013-04-07 11:26:00,43.1,40.4,29.71,SE,135,0.0,0.0,90,0.00,,OVC006,0.00,VWS V14.01,2013-04-07 18:26:00,
2013-04-07 11:31:00,43.5,40.8,29.72,South,180,0.0,0.0,90,0.00,,OVC006,0.00,VWS V14.01,2013-04-07 18:31:00,
2013-04-07 11:37:00,43.5,40.8,29.72,SE,135,0.0,0.0,90,0.00,,OVC006,0.00,VWS V14.01,2013-04-07 18:37:00,
2013-04-07 11:42:00,43.8,41.1,29.72,SSE,158,0.0,0.0,90,0.00,,OVC006,0.00,VWS V14.01,2013-04-07 18:42:00,
2013-04-07 11:47:00,43.8,41.1,29.72,SSE,158,0.0,0.0,90,0.00,,OVC006,0.00,VWS V14.01,2013-04-07 18:47:00,
2013-04-07 11:53:00,43.8,41.1,29.72,SSE,158,0.0,0.0,90,0.00,,OVC006,0.00,VWS V14.01,2013-04-07 18:53:00,
2013-04-07 11:58:00,44.0,41.3,29.73,SSE,158,0.0,0.0,90,0.00,,OVC006,0.00,VWS V14.01,2013-04-07 18:58:00,
2013-04-07 12:03:00,44.2,41.5,29.73,SSE,158,0.0,0.0,90,0.00,,OVC005,0.00,VWS V14.01,2013-04-07 19:03:00,
2013-04-07 12:09:00,44.2,41.5,29.73,ESE,112,0.0,0.0,90,0.00,,OVC005,0.00,VWS V14.01,2013-04-07 19:09:00,
2013-04-07 12:14:00,44.2,41.5,29.73,South,180,0.0,0.0,90,0.00,,OVC005,0.00,VWS V14.01,2013-04-07 19:14:00,
2013-04-07 12:19:00,44.4,41.7,29.73,ESE,112,0.0,0.0,90,0.00,,OVC005,0.00,VWS V14.01,2013-04-07 19:19:00,
2013-04-07 12:24:00,44.4,41.4,29.74,SE,135,0.0,0.0,89,0.00,,OVC005,0.00,VWS V14.01,2013-04-07 19:24:00,
2013-04-07 12:30:00,44.6,41.6,29.74,SE,135,0.0,0.0,89,0.00,,OVC005,0.00,VWS V14.01,2013-04-07 19:30:00,
2013-04-07 12:35:00,44.6,41.6,29.74,SE,135,0.0,0.0,89,0.00,,OVC005,0.00,VWS V14.01,2013-04-07 19:35:00,
2013-04-07 12:40:00,44.6,41.6,29.74,ENE,68,0.0,0.0,89,0.00,,OVC005,0.00,VWS V14.01,2013-04-07 19:40:00,
2013-04-07 12:45:00,44.7,41.7,29.74,ENE,68,0.0,0.0,89,0.00,,OVC005,0.00,VWS V14.01,2013-04-07 19:45:00,
2013-04-07 12:50:00,45.1,42.1,29.74,ENE,68,0.0,0.0,89,0.00,,OVC005,0.00,VWS V14.01,2013-04-07 19:50:00,
2013-04-07 12:55:00,45.3,42.3,29.74,ENE,68,0.0,0.0,89,0.00,,OVC005,0.00,VWS V14.01,2013-04-07 19:55:00,
2013-04-07 13:01:00,45.5,42.2,29.75,ENE,68,0.0,0.0,88,0.00,,OVC005,0.00,VWS V14.01,2013-04-07 20:01:00,
2013-04-07 13:06:00,45.6,42.3,29.75,ENE,68,0.0,0.0,88,0.00,,OVC005,0.00,VWS V14.01,2013-04-07 20:06:00,
2013-04-07 13:12:00,46.0,42.7,29.75,ENE,68,0.0,0.0,88,0.00,,OVC005,0.00,VWS V14.01,2013-04-07 20:12:00,
2013-04-07 13:17:00,46.0,42.7,29.75,ENE,68,0.0,0.0,88,0.00,,OVC005,0.00,VWS V14.01,2013-04-07 20:17:00,
2013-04-07 13:22:00,46.0,42.7,29.74,ENE,68,0.0,0.0,88,0.00,,OVC005,0.00,VWS V14.01,2013-04-07 20:22:00,
2013-04-07 13:27:00,46.0,42.7,29.75,SSE,158,0.0,0.0,88,0.00,,OVC005,0.00,VWS V14.01,2013-04-07 20:27:00,
2013-04-07 13:32:00,45.8,42.5,29.75,SSE,158,0.0,0.0,88,0.00,,OVC005,0.00,VWS V14.01,2013-04-07 20:32:00,
2013-04-07 13:37:00,45.5,42.2,29.75,SSE,158,0.0,0.0,88,0.00,,OVC005,0.00,VWS V14.01,2013-04-07 20:37:00,
2013-04-07 13:43:00,45.5,42.2,29.75,SE,135,0.0,0.0,88,0.00,,OVC005,0.00,VWS V14.01,2013-04-07 20:43:00,
2013-04-07 13:48:00,45.6,42.3,29.75,SE,135,0.0,0.0,88,0.00,,OVC005,0.00,VWS V14.01,2013-04-07 20:48:00,
2013-04-07 13:54:00,45.6,42.3,29.75,ESE,112,0.0,0.0,88,0.00,,OVC005,0.00,VWS V14.01,2013-04-07 20:54:00,
2013-04-07 13:59:00,45.3,42.0,29.75,East,90,0.0,0.0,88,0.00,,OVC005,0.00,VWS V14.01,2013-04-07 20:59:00,
2013-04-07 14:04:00,45.3,42.0,29.75,East,90,0.0,0.0,88,0.00,,OVC015,0.00,VWS V14.01,2013-04-07 21:04:00,
2013-04-07 14:10:00,45.1,41.8,29.75,East,90,0.0,0.0,88,0.00,,OVC015,0.00,VWS V14.01,2013-04-07 21:10:00,
2013-04-07 14:16:00,45.1,41.8,29.76,East,90,0.0,0.0,88,0.00,,OVC015,0.00,VWS V14.01,2013-04-07 21:16:00,
2013-04-07 14:21:00,45.1,41.8,29.76,SE,135,0.0,0.0,88,0.00,,OVC015,0.00,VWS V14.01,2013-04-07 21:21:00,
2013-04-07 14:26:00,45.3,42.0,29.76,NE,45,0.0,0.0,88,0.00,,OVC015,0.00,VWS V14.01,2013-04-07 21:26:00,
2013-04-07 14:32:00,45.3,42.0,29.77,NNW,338,0.0,0.0,88,0.00,,OVC015,0.00,VWS V14.01,2013-04-07 21:32:00,
2013-04-07 14:38:00,45.5,42.2,29.77,NNW,338,0.0,0.0,88,0.00,,OVC015,0.00,VWS V14.01,2013-04-07 21:38:00,
2013-04-07 14:43:00,45.6,42.3,29.77,SSE,158,0.0,0.0,88,0.00,,OVC015,0.00,VWS V14.01,2013-04-07 21:43:00,
2013-04-07 14:48:00,45.6,42.3,29.76,North,0,0.0,0.0,88,0.00,,OVC015,0.00,VWS V14.01,2013-04-07 21:48:00,
2013-04-07 14:54:00,45.6,42.3,29.77,NNW,338,0.0,0.0,88,0.00,,OVC015,0.00,VWS V14.01,2013-04-07 21:54:00,
2013-04-07 14:59:00,45.6,42.3,29.77,SSE,158,0.0,0.0,88,0.00,,OVC015,0.00,VWS V14.01,2013-04-07 21:59:00,
2013-04-07 15:04:00,45.6,42.3,29.77,SE,135,0.0,0.0,88,0.00,,OVC015,0.00,VWS V14.01,2013-04-07 22:04:00,
2013-04-07 15:10:00,45.6,42.3,29.77,SSW,202,0.0,0.0,88,0.00,,OVC015,0.00,VWS V14.01,2013-04-07 22:10:00,
2013-04-07 15:15:00,45.6,42.0,29.77,SSE,158,0.0,0.0,87,0.00,,OVC015,0.00,VWS V14.01,2013-04-07 22:15:00,
2013-04-07 15:20:00,45.6,42.0,29.77,ESE,112,0.0,0.0,87,0.00,,OVC015,0.00,VWS V14.01,2013-04-07 22:20:00,
2013-04-07 15:25:00,45.6,41.7,29.77,SE,135,0.0,0.0,86,0.00,,OVC015,0.00,VWS V14.01,2013-04-07 22:25:00,
2013-04-07 15:30:00,45.5,41.6,29.77,NNE,22,0.0,0.0,86,0.00,,OVC015,0.00,VWS V14.01,2013-04-07 22:30:00,
2013-04-07 15:35:00,45.3,41.7,29.77,SE,135,0.0,0.0,87,0.00,,OVC015,0.00,VWS V14.01,2013-04-07 22:35:00,
2013-04-07 15:40:00,45.3,41.7,29.78,SE,135,0.0,0.0,87,0.00,,OVC015,0.00,VWS V14.01,2013-04-07 22:40:00,
2013-04-07 15:45:00,45.3,41.7,29.78,SSE,158,0.0,0.0,87,0.00,,OVC015,0.00,VWS V14.01,2013-04-07 22:45:00,
2013-04-07 15:50:00,45.1,41.5,29.78,SE,135,0.8,0.8,87,0.00,,OVC015,0.00,VWS V14.01,2013-04-07 22:50:00,
2013-04-07 15:55:00,44.9,41.3,29.78,SSE,158,0.0,0.0,87,0.00,,OVC015,0.00,VWS V14.01,2013-04-07 22:55:00,
2013-04-07 16:00:00,44.6,41.0,29.79,South,180,0.0,0.0,87,0.00,,OVC015,0.00,VWS V14.01,2013-04-07 23:00:00,
2013-04-07 16:05:00,44.4,40.8,29.78,SSW,202,0.0,0.0,87,0.00,,OVC017,0.00,VWS V14.01,2013-04-07 23:05:00,
2013-04-07 16:10:00,44.2,40.6,29.78,SSW,202,0.0,0.0,87,0.00,,OVC017,0.00,VWS V14.01,2013-04-07 23:10:00,
2013-04-07 16:15:00,43.8,40.2,29.78,SSW,202,0.0,0.0,87,0.00,,OVC017,0.00,VWS V14.01,2013-04-07 23:15:00,
2013-04-07 16:20:00,43.8,40.2,29.78,SSW,202,0.0,0.0,87,0.00,,OVC017,0.00,VWS V14.01,2013-04-07 23:20:00,
2013-04-07 16:25:00,43.7,40.1,29.79,ENE,68,0.0,0.0,87,0.00,,OVC017,0.00,VWS V14.01,2013-04-07 23:25:00,
2013-04-07 16:30:00,43.7,40.1,29.79,SE,135,0.0,0.0,87,0.00,,OVC017,0.00,VWS V14.01,2013-04-07 23:30:00,
2013-04-07 16:35:00,43.5,40.2,29.79,SE,135,0.0,0.0,88,0.00,,OVC017,0.00,VWS V14.01,2013-04-07 23:35:00,
2013-04-07 16:40:00,43.5,40.2,29.79,SE,135,0.0,0.0,88,0.00,,OVC017,0.00,VWS V14.01,2013-04-07 23:40:00,
2013-04-07 16:45:00,43.7,40.4,29.80,SSE,158,0.0,0.0,88,0.00,,OVC017,0.00,VWS V14.01,2013-04-07 23:45:00,
2013-04-07 16:50:00,43.5,40.2,29.80,ESE,112,0.0,0.0,88,0.00,,OVC017,0.00,VWS V14.01,2013-04-07 23:50:00,
2013-04-07 16:55:00,43.5,40.2,29.80,ESE,112,0.0,0.0,88,0.00,,OVC017,0.00,VWS V14.01,2013-04-07 23:55:00,
2013-04-07 17:01:00,43.5,40.2,29.80,ESE,112,0.0,0.0,88,0.00,,OVC017,0.00,VWS V14.01,2013-04-08 00:01:00,
2013-04-07 17:06:00,43.7,40.4,29.80,ESE,112,0.0,0.0,88,0.00,,OVC017,0.00,VWS V14.01,2013-04-08 00:06:00,
2013-04-07 17:11:00,43.7,40.4,29.80,SSE,158,0.0,0.0,88,0.00,,OVC017,0.00,VWS V14.01,2013-04-08 00:11:00,
2013-04-07 17:17:00,43.8,40.5,29.80,SSE,158,0.0,0.0,88,0.00,,OVC017,0.00,VWS V14.01,2013-04-08 00:17:00,
2013-04-07 17:22:00,44.0,40.7,29.80,SSW,202,0.0,0.0,88,0.00,,OVC017,0.00,VWS V14.01,2013-04-08 00:22:00,
2013-04-07 17:27:00,44.2,41.2,29.80,SW,225,0.0,0.0,89,0.00,,OVC017,0.00,VWS V14.01,2013-04-08 00:27:00,
2013-04-07 17:32:00,44.2,41.2,29.80,SE,135,0.0,0.0,89,0.00,,OVC017,0.00,VWS V14.01,2013-04-08 00:32:00,
2013-04-07 17:38:00,44.2,41.2,29.80,SE,135,0.0,0.0,89,0.00,,OVC017,0.00,VWS V14.01,2013-04-08 00:38:00,
2013-04-07 17:43:00,44.4,41.4,29.80,SSW,202,0.0,0.0,89,0.00,,OVC017,0.00,VWS V14.01,2013-04-08 00:43:00,
2013-04-07 17:48:00,44.4,41.4,29.81,SSW,202,0.0,0.0,89,0.00,,OVC017,0.00,VWS V14.01,2013-04-08 00:48:00,
2013-04-07 17:54:00,44.4,41.4,29.80,SSW,202,0.0,0.0,89,0.00,,OVC017,0.00,VWS V14.01,2013-04-08 00:54:00,
2013-04-07 17:59:00,44.4,41.1,29.81,SSW,202,0.0,0.0,88,0.00,,OVC017,0.00,VWS V14.01,2013-04-08 00:59:00,
2013-04-07 18:04:00,44.2,40.9,29.81,South,180,0.0,0.0,88,0.00,,BKN033,0.00,VWS V14.01,2013-04-08 01:04:00,
2013-04-07 18:09:00,44.2,40.9,29.81,SSE,158,0.0,0.0,88,0.00,,BKN033,0.00,VWS V14.01,2013-04-08 01:09:00,
2013-04-07 18:15:00,44.4,41.1,29.81,ESE,112,0.0,0.0,88,0.00,,BKN033,0.00,VWS V14.01,2013-04-08 01:15:00,
2013-04-07 18:20:00,44.4,41.1,29.81,ESE,112,0.0,0.0,88,0.00,,BKN033,0.00,VWS V14.01,2013-04-08 01:20:00,
2013-04-07 18:25:00,44.4,41.1,29.81,ESE,112,0.0,0.0,88,0.00,,BKN033,0.00,VWS V14.01,2013-04-08 01:25:00,
2013-04-07 18:30:00,44.2,40.9,29.82,ESE,112,0.0,0.0,88,0.00,,BKN033,0.00,VWS V14.01,2013-04-08 01:30:00,
2013-04-07 18:35:00,44.2,41.2,29.82,ESE,112,0.0,0.0,89,0.00,,BKN033,0.00,VWS V14.01,2013-04-08 01:35:00,
2013-04-07 18:40:00,44.0,40.7,29.81,ESE,112,0.0,0.0,88,0.00,,BKN033,0.00,VWS V14.01,2013-04-08 01:40:00,
2013-04-07 18:46:00,44.0,40.7,29.82,ESE,112,0.0,0.0,88,0.00,,BKN033,0.00,VWS V14.01,2013-04-08 01:46:00,
2013-04-07 18:51:00,43.8,40.5,29.82,ESE,112,0.0,0.0,88,0.00,,BKN033,0.00,VWS V14.01,2013-04-08 01:51:00,
2013-04-07 18:56:00,43.8,40.5,29.82,ESE,112,0.0,0.0,88,0.00,,BKN033,0.00,VWS V14.01,2013-04-08 01:56:00,
2013-04-07 19:01:00,43.8,40.5,29.81,ESE,112,0.0,0.0,88,0.00,,BKN033,0.00,VWS V14.01,2013-04-08 02:01:00,
2013-04-07 19:07:00,43.7,40.4,29.82,ESE,112,0.0,0.0,88,0.00,,BKN033,0.00,VWS V14.01,2013-04-08 02:07:00,
2013-04-07 19:12:00,43.5,40.5,29.82,ESE,112,0.0,0.0,89,0.00,,BKN033,0.00,VWS V14.01,2013-04-08 02:12:00,
2013-04-07 19:17:00,43.5,40.5,29.82,ESE,112,0.0,0.0,89,0.00,,BKN033,0.00,VWS V14.01,2013-04-08 02:17:00,
2013-04-07 19:22:00,43.3,40.3,29.82,ESE,112,0.0,0.0,89,0.00,,BKN033,0.00,VWS V14.01,2013-04-08 02:22:00,
2013-04-07 19:27:00,43.3,40.3,29.83,ESE,112,0.0,0.0,89,0.00,,BKN033,0.00,VWS V14.01,2013-04-08 02:27:00,
2013-04-07 19:33:00,43.3,40.3,29.83,ESE,112,0.0,0.0,89,0.00,,BKN033,0.00,VWS V14.01,2013-04-08 02:33:00,
2013-04-07 19:38:00,43.1,40.1,29.83,ESE,112,0.0,0.0,89,0.00,,BKN033,0.00,VWS V14.01,2013-04-08 02:38:00,
2013-04-07 19:44:00,43.1,40.1,29.83,ESE,112,0.0,0.0,89,0.00,,BKN033,0.00,VWS V14.01,2013-04-08 02:44:00,
2013-04-07 19:49:00,42.9,39.9,29.83,ESE,112,0.0,0.0,89,0.00,,BKN033,0.00,VWS V14.01,2013-04-08 02:49:00,
2013-04-07 19:54:00,42.9,39.9,29.83,ESE,112,0.0,0.0,89,0.00,,BKN033,0.00,VWS V14.01,2013-04-08 02:54:00,
2013-04-07 19:59:00,42.9,39.9,29.84,ESE,112,0.0,0.0,89,0.00,,BKN033,0.00,VWS V14.01,2013-04-08 02:59:00,
2013-04-07 20:05:00,42.9,39.9,29.84,ESE,112,0.0,0.0,89,0.00,,BKN035,0.00,VWS V14.01,2013-04-08 03:05:00,
2013-04-07 20:10:00,42.9,39.9,29.84,ESE,112,0.0,0.0,89,0.00,,BKN035,0.00,VWS V14.01,2013-04-08 03:10:00,
2013-04-07 20:16:00,42.9,39.9,29.84,ESE,112,0.0,0.0,89,0.00,,BKN035,0.00,VWS V14.01,2013-04-08 03:16:00,
2013-04-07 20:22:00,42.9,39.9,29.84,ESE,112,0.0,0.0,89,0.00,,BKN035,0.00,VWS V14.01,2013-04-08 03:22:00,
2013-04-07 20:27:00,42.9,39.9,29.84,ESE,112,0.0,0.0,89,0.00,,BKN035,0.00,VWS V14.01,2013-04-08 03:27:00,
2013-04-07 20:32:00,42.8,39.8,29.85,ESE,112,0.0,0.0,89,0.00,,BKN035,0.00,VWS V14.01,2013-04-08 03:32:00,
2013-04-07 20:39:00,42.6,39.6,29.85,ESE,112,0.0,0.0,89,0.00,,BKN035,0.00,VWS V14.01,2013-04-08 03:39:00,
2013-04-07 20:45:00,42.6,39.6,29.85,ESE,112,0.0,0.0,89,0.00,,BKN035,0.00,VWS V14.01,2013-04-08 03:45:00,
2013-04-07 20:50:00,42.4,39.4,29.85,ESE,112,0.0,0.0,89,0.00,,BKN035,0.00,VWS V14.01,2013-04-08 03:50:00,
2013-04-07 20:55:00,42.4,39.4,29.85,ESE,112,0.0,0.0,89,0.00,,BKN035,0.00,VWS V14.01,2013-04-08 03:55:00,
2013-04-07 21:00:00,42.4,39.4,29.86,ESE,112,0.0,0.0,89,0.00,,BKN035,0.00,VWS V14.01,2013-04-08 04:00:00,
2013-04-07 21:01:00,42.4,39.4,29.86,ESE,112,0.0,0.0,89,0.00,,BKN035,0.00,VWS V14.01,2013-04-08 04:01:00,
2013-04-07 21:07:00,42.0,39.0,29.86,ESE,112,0.0,0.0,89,0.00,,BKN035,0.00,VWS V14.01,2013-04-08 04:07:00,
2013-04-07 21:13:00,42.0,39.0,29.86,ESE,112,0.0,0.0,89,0.00,,BKN035,0.00,VWS V14.01,2013-04-08 04:13:00,
2013-04-07 21:18:00,42.0,39.0,29.87,ESE,112,0.0,0.0,89,0.00,,BKN035,0.00,VWS V14.01,2013-04-08 04:18:00,
2013-04-07 21:23:00,42.0,39.3,29.87,ESE,112,0.0,0.0,90,0.00,,BKN035,0.00,VWS V14.01,2013-04-08 04:23:00,
2013-04-07 21:29:00,42.0,39.3,29.87,ESE,112,0.0,0.0,90,0.00,,BKN035,0.00,VWS V14.01,2013-04-08 04:29:00,
2013-04-07 21:34:00,42.0,39.3,29.87,ESE,112,0.0,0.0,90,0.00,,BKN035,0.00,VWS V14.01,2013-04-08 04:34:00,
2013-04-07 21:39:00,42.0,39.3,29.87,ESE,112,0.0,0.0,90,0.00,,BKN035,0.00,VWS V14.01,2013-04-08 04:39:00,
2013-04-07 21:45:00,41.9,39.2,29.87,ESE,112,0.0,0.0,90,0.00,,BKN035,0.00,VWS V14.01,2013-04-08 04:45:00,
2013-04-07 21:50:00,41.9,39.2,29.87,ESE,112,0.0,0.0,90,0.00,,BKN035,0.00,VWS V14.01,2013-04-08 04:50:00,
2013-04-07 21:55:00,41.9,39.2,29.87,ESE,112,0.0,0.0,90,0.00,,BKN035,0.00,VWS V14.01,2013-04-08 04:55:00,
2013-04-07 22:00:00,41.7,39.0,29.88,ESE,112,0.0,0.0,90,0.00,,BKN049,0.00,VWS V14.01,2013-04-08 05:00:00,
2013-04-07 22:05:00,41.7,39.0,29.88,ESE,112,0.0,0.0,90,0.00,,BKN049,0.00,VWS V14.01,2013-04-08 05:05:00,
2013-04-07 22:11:00,41.7,39.0,29.88,ESE,112,0.0,0.0,90,0.00,,BKN049,0.00,VWS V14.01,2013-04-08 05:11:00,
2013-04-07 22:16:00,41.7,39.0,29.88,ESE,112,0.0,0.0,90,0.00,,BKN049,0.00,VWS V14.01,2013-04-08 05:16:00,
2013-04-07 22:22:00,41.7,39.0,29.88,ESE,112,0.0,0.0,90,0.00,,BKN049,0.00,VWS V14.01,2013-04-08 05:22:00,
2013-04-07 22:27:00,41.7,39.0,29.88,ESE,112,0.0,0.0,90,0.00,,BKN049,0.00,VWS V14.01,2013-04-08 05:27:00,
2013-04-07 22:32:00,41.5,38.8,29.88,ESE,112,0.0,0.0,90,0.00,,BKN049,0.00,VWS V14.01,2013-04-08 05:32:00,
2013-04-07 22:37:00,41.5,38.8,29.89,ESE,112,0.0,0.0,90,0.00,,BKN049,0.00,VWS V14.01,2013-04-08 05:37:00,
2013-04-07 22:43:00,41.5,38.8,29.89,ESE,112,0.0,0.0,90,0.00,,BKN049,0.00,VWS V14.01,2013-04-08 05:43:00,
2013-04-07 22:48:00,41.3,38.6,29.89,ESE,112,0.0,0.0,90,0.00,,BKN049,0.00,VWS V14.01,2013-04-08 05:48:00,
2013-04-07 22:53:00,41.3,38.6,29.89,ESE,112,0.0,0.0,90,0.00,,BKN049,0.00,VWS V14.01,2013-04-08 05:53:00,
2013-04-07 22:58:00,41.3,38.6,29.89,ESE,112,0.0,0.0,90,0.00,,BKN049,0.00,VWS V14.01,2013-04-08 05:58:00,
2013-04-07 23:04:00,41.3,38.6,29.89,ESE,112,0.0,0.0,90,0.00,,BKN049,0.00,VWS V14.01,2013-04-08 06:04:00,
2013-04-07 23:09:00,41.1,38.4,29.89,ESE,112,0.0,0.0,90,0.00,,BKN049,0.00,VWS V14.01,2013-04-08 06:09:00,
2013-04-07 23:14:00,41.1,38.4,29.89,ESE,112,0.0,0.0,90,0.00,,BKN049,0.00,VWS V14.01,2013-04-08 06:14:00,
2013-04-07 23:20:00,41.0,38.3,29.89,ESE,112,0.0,0.0,90,0.00,,BKN049,0.00,VWS V14.01,2013-04-08 06:20:00,
2013-04-07 23:25:00,40.8,38.1,29.90,ESE,112,0.0,0.0,90,0.00,,BKN049,0.00,VWS V14.01,2013-04-08 06:25:00,
2013-04-07 23:30:00,40.8,38.1,29.90,ESE,112,0.0,0.0,90,0.00,,BKN049,0.00,VWS V14.01,2013-04-08 06:30:00,
2013-04-07 23:35:00,40.8,38.1,29.90,ESE,112,0.0,0.0,90,0.00,,BKN049,0.00,VWS V14.01,2013-04-08 06:35:00,
2013-04-07 23:40:00,40.8,38.1,29.90,ESE,112,0.0,0.0,90,0.00,,BKN049,0.00,VWS V14.01,2013-04-08 06:40:00,
2013-04-07 23:45:00,40.8,38.1,29.90,ESE,112,0.0,0.0,90,0.00,,BKN049,0.00,VWS V14.01,2013-04-08 06:45:00,
2013-04-07 23:50:00,40.6,37.9,29.91,ESE,112,0.0,0.0,90,0.00,,BKN049,0.00,VWS V14.01,2013-04-08 06:50:00,
2013-04-07 23:55:00,40.6,37.9,29.91,ESE,112,0.0,0.0,90,0.00,,BKN049,0.00,VWS V14.01,2013-04-08 06:55:00,